| time (UTC) | temp F | wind direction | speed MPH | gust MPH | rain 1hr in | rain 24hr in | rain mn in | humidity % | barometer mb |
| 20260506194243 | 50 | 240 | 1.0 | 3.0 | 0.00 | 1.46 | 0.29 | 82 | 1009.2 |
| 20260506193729 | 49 | 255 | 1.0 | 3.0 | 0.00 | 1.46 | 0.29 | 83 | 1009.2 |
| 20260506193228 | 49 | 235 | 1.0 | 3.0 | 0.00 | 1.46 | 0.29 | 82 | 1009.2 |
| 20260506192728 | 49 | 257 | 1.0 | 3.0 | 0.00 | 1.46 | 0.29 | 82 | 1009.1 |
| 20260506192234 | 49 | 257 | 0.0 | 3.0 | 0.00 | 1.46 | 0.29 | 84 | 1009.1 |
| 20260506191754 | 50 | 221 | 1.0 | 3.0 | 0.00 | 1.46 | 0.29 | 81 | 1009.1 |
| 20260506191239 | 50 | 264 | 2.0 | 3.0 | 0.00 | 1.46 | 0.29 | 81 | 1009.0 |
| 20260506190738 | 50 | 261 | 1.0 | 2.0 | 0.00 | 1.46 | 0.29 | 82 | 1009.0 |
| 20260506190256 | 50 | 243 | 0.0 | 1.0 | 0.00 | 1.46 | 0.29 | 83 | 1009.0 |
| 20260506185742 | 51 | 243 | 0.0 | 1.0 | 0.00 | 1.46 | 0.29 | 81 | 1009.0 |
| 20260506185247 | 51 | 243 | 0.0 | 3.0 | 0.00 | 1.46 | 0.29 | 81 | 1008.8 |
| 20260506184727 | 51 | 263 | 2.0 | 4.0 | 0.00 | 1.46 | 0.29 | 82 | 1008.8 |
| 20260506184226 | 51 | 259 | 2.0 | 4.0 | 0.00 | 1.46 | 0.29 | 81 | 1008.8 |
| 20260506183733 | 51 | 262 | 2.0 | 4.0 | 0.00 | 1.46 | 0.29 | 81 | 1008.7 |
| 20260506183232 | 51 | 260 | 2.0 | 4.0 | 0.00 | 1.46 | 0.29 | 81 | 1008.7 |
| 20260506182731 | 51 | 245 | 2.0 | 5.0 | 0.00 | 1.46 | 0.29 | 81 | 1008.7 |
| 20260506182235 | 52 | 240 | 3.0 | 5.0 | 0.00 | 1.46 | 0.29 | 80 | 1008.6 |
| 20260506181735 | 52 | 266 | 3.0 | 5.0 | 0.00 | 1.46 | 0.29 | 80 | 1008.6 |
| 20260506181233 | 52 | 250 | 2.0 | 3.0 | 0.00 | 1.46 | 0.29 | 81 | 1008.6 |
| 20260506180740 | 52 | 265 | 2.0 | 3.0 | 0.00 | 1.46 | 0.29 | 81 | 1008.6 |
| 20260506180250 | 52 | 264 | 1.0 | 3.0 | 0.00 | 1.46 | 0.29 | 82 | 1008.5 |
| 20260506175744 | 52 | 251 | 1.0 | 3.0 | 0.00 | 1.46 | 0.29 | 82 | 1008.4 |
| 20260506175223 | 52 | 252 | 1.0 | 2.0 | 0.00 | 1.46 | 0.29 | 82 | 1008.5 |
| 20260506174742 | 52 | 229 | 0.0 | 3.0 | 0.00 | 1.46 | 0.29 | 82 | 1008.5 |
| 20260506174249 | 52 | 237 | 2.0 | 4.0 | 0.00 | 1.46 | 0.29 | 80 | 1008.4 |
| 20260506173727 | 52 | 241 | 3.0 | 6.0 | 0.00 | 1.46 | 0.29 | 79 | 1008.4 |
| 20260506173234 | 52 | 264 | 4.0 | 10.0 | 0.00 | 1.46 | 0.29 | 79 | 1008.3 |
| 20260506172733 | 52 | 258 | 3.0 | 5.0 | 0.00 | 1.46 | 0.29 | 80 | 1008.3 |
| 20260506172239 | 52 | 259 | 2.0 | 4.0 | 0.00 | 1.46 | 0.29 | 81 | 1008.3 |
| 20260506171738 | 52 | 257 | 2.0 | 4.0 | 0.00 | 1.46 | 0.29 | 81 | 1008.2 |
| 20260506171237 | 53 | 245 | 1.0 | 5.0 | 0.00 | 1.46 | 0.29 | 81 | 1008.2 |
| 20260506170744 | 53 | 232 | 3.0 | 6.0 | 0.00 | 1.46 | 0.29 | 79 | 1008.2 |
| 20260506170234 | 53 | 252 | 4.0 | 8.0 | 0.00 | 1.46 | 0.29 | 80 | 1008.1 |
| 20260506165748 | 53 | 238 | 4.0 | 8.0 | 0.00 | 1.46 | 0.29 | 81 | 1008.1 |
| 20260506165227 | 53 | 264 | 3.0 | 6.0 | 0.00 | 1.46 | 0.29 | 81 | 1008.1 |
| 20260506164726 | 52 | 262 | 3.0 | 7.0 | 0.00 | 1.46 | 0.29 | 83 | 1008.2 |
| 20260506164231 | 53 | 246 | 4.0 | 9.0 | 0.00 | 1.46 | 0.29 | 82 | 1008.2 |
| 20260506163731 | 52 | 231 | 7.0 | 9.0 | 0.00 | 1.46 | 0.29 | 83 | 1008.2 |
| 20260506163231 | 52 | 242 | 4.0 | 8.0 | 0.00 | 1.46 | 0.29 | 83 | 1008.3 |
| 20260506162737 | 52 | 261 | 4.0 | 8.0 | 0.00 | 1.46 | 0.29 | 83 | 1008.3 |
| 20260506162243 | 52 | 243 | 4.0 | 7.0 | 0.00 | 1.46 | 0.29 | 83 | 1008.4 |
| 20260506161742 | 52 | 247 | 4.0 | 8.0 | 0.00 | 1.46 | 0.29 | 83 | 1008.3 |
| 20260506161247 | 52 | 262 | 4.0 | 8.0 | 0.00 | 1.46 | 0.29 | 83 | 1008.3 |
| 20260506160726 | 52 | 274 | 2.0 | 10.0 | 0.00 | 1.46 | 0.29 | 83 | 1008.3 |
| 20260506160237 | 52 | 238 | 5.0 | 10.0 | 0.00 | 1.46 | 0.29 | 82 | 1008.3 |
| 20260506155730 | 52 | 225 | 6.0 | 11.0 | 0.00 | 1.46 | 0.29 | 83 | 1008.3 |
| 20260506155229 | 52 | 247 | 6.0 | 11.0 | 0.00 | 1.46 | 0.29 | 82 | 1008.4 |
| 20260506154757 | 52 | 265 | 5.0 | 8.0 | 0.00 | 1.46 | 0.29 | 83 | 1008.3 |
| 20260506154233 | 52 | 244 | 5.0 | 8.0 | 0.00 | 1.46 | 0.29 | 83 | 1008.3 |
| 20260506153732 | 52 | 238 | 5.0 | 10.0 | 0.00 | 1.46 | 0.29 | 83 | 1008.3 |
| 20260506153238 | 52 | 250 | 7.0 | 11.0 | 0.00 | 1.46 | 0.29 | 83 | 1008.3 |
| 20260506152754 | 52 | 237 | 8.0 | 12.0 | 0.00 | 1.46 | 0.29 | 83 | 1008.2 |
| 20260506152300 | 53 | 261 | 7.0 | 12.0 | 0.00 | 1.46 | 0.29 | 81 | 1008.3 |
| 20260506151737 | 53 | 207 | 4.0 | 8.0 | 0.00 | 1.46 | 0.29 | 83 | 1008.2 |
| 20260506151225 | 52 | 239 | 4.0 | 10.0 | 0.00 | 1.46 | 0.29 | 84 | 1008.3 |
| 20260506150723 | 52 | 243 | 6.0 | 11.0 | 0.00 | 1.46 | 0.29 | 84 | 1008.2 |
| 20260506150304 | 52 | 254 | 5.0 | 9.0 | 0.00 | 1.46 | 0.29 | 84 | 1008.2 |
| 20260506145724 | 52 | 224 | 4.0 | 7.0 | 0.00 | 1.46 | 0.29 | 84 | 1008.2 |
| 20260506145225 | 52 | 230 | 3.0 | 7.0 | 0.00 | 1.46 | 0.29 | 85 | 1008.2 |
| 20260506144724 | 52 | 292 | 3.0 | 10.0 | 0.00 | 1.46 | 0.29 | 84 | 1008.2 |
| 20260506144247 | 52 | 238 | 6.0 | 10.0 | 0.00 | 1.46 | 0.29 | 83 | 1008.2 |
| 20260506143726 | 52 | 259 | 5.0 | 9.0 | 0.00 | 1.46 | 0.29 | 84 | 1008.1 |
| 20260506143222 | 52 | 273 | 6.0 | 10.0 | 0.00 | 1.46 | 0.29 | 83 | 1008.0 |
| 20260506142748 | 52 | 229 | 5.0 | 13.0 | 0.00 | 1.46 | 0.29 | 83 | 1008.0 |
| 20260506142227 | 52 | 229 | 6.0 | 12.0 | 0.00 | 1.46 | 0.29 | 84 | 1008.1 |
| 20260506141732 | 52 | 224 | 5.0 | 12.0 | 0.00 | 1.46 | 0.29 | 85 | 1008.1 |
| 20260506141237 | 52 | 242 | 5.0 | 9.0 | 0.00 | 1.46 | 0.29 | 84 | 1008.1 |
| 20260506140805 | 52 | 163 | 5.0 | 9.0 | 0.00 | 1.46 | 0.29 | 85 | 1008.0 |
| 20260506140254 | 52 | 233 | 4.0 | 8.0 | 0.00 | 1.46 | 0.29 | 86 | 1008.0 |
| 20260506135746 | 52 | 236 | 4.0 | 7.0 | 0.00 | 1.46 | 0.29 | 87 | 1007.9 |
| 20260506135225 | 52 | 255 | 4.0 | 9.0 | 0.00 | 1.46 | 0.29 | 85 | 1008.0 |
| 20260506134725 | 52 | 266 | 5.0 | 10.0 | 0.00 | 1.46 | 0.29 | 85 | 1008.1 |
| 20260506134252 | 52 | 249 | 5.0 | 11.0 | 0.00 | 1.46 | 0.29 | 85 | 1008.0 |
| 20260506133730 | 52 | 226 | 6.0 | 11.0 | 0.00 | 1.46 | 0.29 | 85 | 1008.0 |
| 20260506133228 | 52 | 250 | 7.0 | 11.0 | 0.00 | 1.46 | 0.29 | 85 | 1008.0 |
| 20260506132754 | 52 | 220 | 4.0 | 10.0 | 0.00 | 1.46 | 0.29 | 86 | 1008.0 |
| 20260506132232 | 52 | 254 | 6.0 | 9.0 | 0.00 | 1.46 | 0.29 | 85 | 1007.9 |
| 20260506131738 | 52 | 224 | 5.0 | 11.0 | 0.00 | 1.46 | 0.29 | 84 | 1008.0 |
| 20260506131237 | 52 | 227 | 5.0 | 11.0 | 0.00 | 1.46 | 0.29 | 84 | 1007.9 |
| 20260506130743 | 52 | 249 | 4.0 | 7.0 | 0.00 | 1.46 | 0.29 | 85 | 1007.9 |
| 20260506130234 | 52 | 200 | 4.0 | 9.0 | 0.00 | 1.46 | 0.29 | 83 | 1007.9 |
| 20260506125808 | 52 | 186 | 5.0 | 9.0 | 0.00 | 1.46 | 0.29 | 83 | 1007.9 |
| 20260506125225 | 52 | 232 | 5.0 | 10.0 | 0.00 | 1.46 | 0.29 | 83 | 1007.9 |
| 20260506124724 | 52 | 222 | 6.0 | 10.0 | 0.00 | 1.46 | 0.29 | 82 | 1007.9 |
| 20260506124229 | 52 | 198 | 5.0 | 10.0 | 0.00 | 1.46 | 0.29 | 82 | 1007.8 |
| 20260506123728 | 53 | 249 | 5.0 | 10.0 | 0.04 | 1.46 | 0.29 | 83 | 1007.8 |
| 20260506123228 | 52 | 240 | 4.0 | 7.0 | 0.04 | 1.46 | 0.29 | 84 | 1007.6 |
| 20260506122734 | 52 | 244 | 2.0 | 5.0 | 0.04 | 1.46 | 0.29 | 87 | 1007.6 |
| 20260506122233 | 52 | 237 | 3.0 | 5.0 | 0.08 | 1.46 | 0.29 | 89 | 1007.4 |
| 20260506121733 | 52 | 258 | 2.0 | 7.0 | 0.12 | 1.46 | 0.29 | 89 | 1007.5 |
| 20260506121259 | 52 | 266 | 4.0 | 8.0 | 0.12 | 1.46 | 0.29 | 89 | 1007.4 |
| 20260506120805 | 52 | 180 | 4.0 | 11.0 | 0.16 | 1.46 | 0.29 | 88 | 1007.4 |
| 20260506120255 | 52 | 229 | 3.0 | 11.0 | 0.24 | 1.46 | 0.29 | 89 | 1007.4 |
| 20260506115727 | 52 | 250 | 5.0 | 8.0 | 0.31 | 1.46 | 0.29 | 89 | 1007.4 |
| 20260506115226 | 52 | 226 | 4.0 | 8.0 | 0.35 | 1.46 | 0.29 | 89 | 1007.5 |
| 20260506114726 | 52 | 249 | 4.0 | 7.0 | 0.39 | 1.46 | 0.29 | 89 | 1007.4 |
| 20260506114232 | 52 | 209 | 3.0 | 6.0 | 0.43 | 1.46 | 0.29 | 89 | 1007.4 |
| 20260506113731 | 51 | 205 | 3.0 | 6.0 | 0.47 | 1.42 | 0.28 | 89 | 1007.4 |
| 20260506113238 | 51 | 270 | 3.0 | 6.0 | 0.51 | 1.42 | 0.28 | 89 | 1007.3 |
| 20260506112758 | 51 | 229 | 3.0 | 6.0 | 0.59 | 1.42 | 0.28 | 90 | 1007.3 |
| 20260506112244 | 51 | 212 | 3.0 | 5.0 | 0.59 | 1.38 | 0.28 | 92 | 1007.3 |
| 20260506111722 | 51 | 234 | 3.0 | 5.0 | 0.63 | 1.34 | 0.27 | 92 | 1007.3 |
| 20260506111221 | 51 | 210 | 2.0 | 4.0 | 0.71 | 1.34 | 0.27 | 92 | 1007.3 |
| 20260506110727 | 51 | 230 | 3.0 | 7.0 | 0.67 | 1.26 | 0.25 | 92 | 1007.3 |
| 20260506110234 | 51 | 241 | 3.0 | 10.0 | 0.67 | 1.22 | 0.24 | 92 | 1007.4 |
| 20260506105727 | 51 | 244 | 6.0 | 10.0 | 0.63 | 1.14 | 0.23 | 92 | 1007.4 |
| 20260506105224 | 51 | 262 | 6.0 | 8.0 | 0.63 | 1.10 | 0.22 | 92 | 1007.5 |
| 20260506104723 | 51 | 212 | 5.0 | 13.0 | 0.67 | 1.06 | 0.21 | 92 | 1007.5 |
| 20260506104225 | 51 | 215 | 9.0 | 13.0 | 0.63 | 0.98 | 0.20 | 91 | 1007.5 |
| 20260506103751 | 51 | 244 | 8.0 | 12.0 | 0.67 | 0.94 | 0.19 | 92 | 1007.5 |
| 20260506103229 | 51 | 236 | 7.0 | 17.0 | 0.71 | 0.91 | 0.18 | 92 | 1007.5 |
| 20260506102735 | 51 | 205 | 10.0 | 17.0 | 0.71 | 0.83 | 0.17 | 91 | 1007.4 |
| 20260506102235 | 52 | 234 | 9.0 | 14.0 | 0.71 | 0.79 | 0.16 | 91 | 1007.3 |
| 20260506101734 | 52 | 224 | 9.0 | 14.0 | 0.63 | 0.71 | 0.14 | 91 | 1007.2 |
| 20260506101241 | 52 | 227 | 8.0 | 11.0 | 0.59 | 0.63 | 0.13 | 91 | 1007.0 |
| 20260506100740 | 52 | 245 | 5.0 | 10.0 | 0.55 | 0.59 | 0.12 | 91 | 1007.0 |
| 20260506100257 | 52 | 182 | 5.0 | 10.0 | 0.55 | 0.59 | 0.11 | 91 | 1006.8 |
| 20260506095723 | 52 | 221 | 4.0 | 7.0 | 0.51 | 0.55 | 0.10 | 91 | 1006.7 |
| 20260506095222 | 52 | 212 | 2.0 | 4.0 | 0.43 | 0.47 | 0.09 | 91 | 1006.6 |
| 20260506094749 | 52 | 251 | 0.0 | 0.0 | 0.39 | 0.43 | 0.08 | 90 | 1006.6 |
| 20260506094228 | 53 | 212 | 0.0 | 0.0 | 0.35 | 0.39 | 0.07 | 90 | 1006.5 |
| 20260506093751 | 53 | 208 | 0.0 | 0.0 | 0.28 | 0.31 | 0.06 | 90 | 1006.5 |
| 20260506093228 | 53 | 227 | 0.0 | 0.0 | 0.16 | 0.20 | 0.03 | 89 | 1006.5 |
| 20260506092727 | 53 | 182 | 0.0 | 0.0 | 0.12 | 0.16 | 0.02 | 89 | 1006.4 |
| 20260506092233 | 53 | 194 | 0.0 | 0.0 | 0.08 | 0.12 | 0.02 | 89 | 1006.3 |
| 20260506091733 | 53 | 184 | 0.0 | 0.0 | 0.08 | 0.12 | 0.02 | 88 | 1006.4 |
| 20260506091239 | 53 | 207 | 0.0 | 0.0 | 0.04 | 0.08 | 0.01 | 88 | 1006.2 |
| 20260506090722 | 54 | 204 | 0.0 | 0.0 | 0.04 | 0.08 | 0.01 | 87 | 1006.3 |
| 20260506090257 | 54 | 208 | 0.0 | 0.0 | 0.00 | 0.04 | 0.00 | 87 | 1006.2 |
| 20260506085722 | 54 | 208 | 0.0 | 0.0 | 0.00 | 0.04 | 0.00 | 87 | 1006.2 |
| 20260506085221 | 54 | 205 | 0.0 | 0.0 | 0.00 | 0.04 | 0.00 | 86 | 1006.0 |
| 20260506084728 | 54 | 187 | 0.0 | 0.0 | 0.00 | 0.04 | 0.00 | 87 | 1005.8 |
| 20260506084227 | 54 | 149 | 0.0 | 0.0 | 0.00 | 0.04 | 0.00 | 87 | 1005.8 |
| 20260506083727 | 54 | 222 | 0.0 | 0.0 | 0.00 | 0.04 | 0.00 | 86 | 1005.8 |
| 20260506083233 | 54 | 221 | 0.0 | 0.0 | 0.00 | 0.04 | 0.00 | 85 | 1005.7 |
| 20260506082732 | 54 | 195 | 0.0 | 0.0 | 0.00 | 0.04 | 0.00 | 85 | 1005.7 |
| 20260506082259 | 54 | 224 | 0.0 | 0.0 | 0.00 | 0.04 | 0.00 | 85 | 1005.7 |
| 20260506081737 | 54 | 200 | 0.0 | 0.0 | 0.00 | 0.04 | 0.00 | 85 | 1005.6 |
| 20260506081237 | 54 | 184 | 0.0 | 0.0 | 0.00 | 0.04 | 0.00 | 85 | 1005.5 |
| 20260506080725 | 54 | 234 | 0.0 | 0.0 | 0.00 | 0.04 | 0.00 | 86 | 1005.4 |
| 20260506080319 | 54 | 254 | 0.0 | 0.0 | 0.00 | 0.04 | 0.00 | 85 | 1005.3 |
| 20260506073301 | 53 | 38 | 0.0 | 0.0 | 0.00 | 0.04 | 0.00 | 88 | 1005.2 |
| 20260506072739 | 53 | 38 | 0.0 | 0.0 | 0.00 | 0.04 | 0.00 | 88 | 1005.4 |
| 20260506072237 | 53 | 38 | 0.0 | 0.0 | 0.00 | 0.04 | 0.00 | 89 | 1005.4 |
| 20260506071744 | 52 | 38 | 0.0 | 0.0 | 0.00 | 0.04 | 0.00 | 90 | 1005.5 |
| 20260506071309 | 52 | 41 | 0.0 | 0.0 | 0.00 | 0.04 | 0.00 | 90 | 1005.5 |
| 20260506070727 | 51 | 48 | 0.0 | 0.0 | 0.00 | 0.04 | 0.00 | 91 | 1005.6 |
| 20260506070257 | 51 | 30 | 0.0 | 0.0 | 0.00 | 0.31 | 0.00 | 91 | 1005.6 |
| 20260506062243 | 50 | 51 | 2.0 | 5.0 | 0.00 | 0.31 | 0.00 | 92 | 1005.6 |
| 20260506061722 | 50 | 39 | 1.0 | 5.0 | 0.00 | 0.31 | 0.00 | 93 | 1005.6 |
| 20260506061228 | 50 | 45 | 3.0 | 5.0 | 0.00 | 0.31 | 0.00 | 93 | 1005.6 |
| 20260506060755 | 50 | 139 | 0.0 | 2.0 | 0.00 | 0.31 | 0.00 | 94 | 1005.6 |
| 20260506060245 | 49 | 193 | 0.0 | 0.0 | 0.00 | 0.47 | 0.00 | 94 | 1005.5 |
| 20260506051231 | 47 | 195 | 0.0 | 0.0 | 0.00 | 0.47 | 0.00 | 95 | 1005.8 |
| 20260506050758 | 47 | 195 | 0.0 | 0.0 | 0.00 | 0.47 | 0.00 | 95 | 1005.9 |
| 20260506050254 | 47 | 195 | 0.0 | 0.0 | 0.00 | 0.51 | 0.00 | 94 | 1005.8 |
| 20260506044720 | 47 | 195 | 0.0 | 0.0 | 0.00 | 0.51 | 0.00 | 94 | 1005.6 |
| 20260506044306 | 47 | 195 | 0.0 | 0.0 | 0.00 | 0.51 | 0.00 | 95 | 1005.6 |
| 20260506043725 | 47 | 195 | 0.0 | 0.0 | 0.00 | 0.51 | 0.00 | 94 | 1005.5 |
| 20260506043222 | 47 | 195 | 0.0 | 0.0 | 0.00 | 0.51 | 0.00 | 94 | 1005.5 |
| 20260506042722 | 47 | 195 | 0.0 | 0.0 | 0.00 | 0.51 | 0.00 | 94 | 1005.5 |
| 20260506042229 | 47 | 195 | 0.0 | 0.0 | 0.00 | 0.51 | 0.00 | 94 | 1005.5 |
| 20260506041728 | 47 | 195 | 0.0 | 0.0 | 0.00 | 0.51 | 0.00 | 94 | 1005.5 |
| 20260506041253 | 47 | 195 | 0.0 | 0.0 | 0.00 | 0.51 | 0.00 | 94 | 1005.4 |
| 20260506040730 | 47 | 195 | 0.0 | 0.0 | 0.00 | 0.51 | 0.00 | 94 | 1005.4 |
| 20260506040248 | 47 | 195 | 0.0 | 0.0 | 0.00 | 0.55 | 0.00 | 94 | 1005.6 |
| 20260506035750 | 47 | 195 | 0.0 | 0.0 | 0.00 | 0.55 | 0.00 | 94 | 1005.6 |
| 20260506035235 | 47 | 195 | 0.0 | 0.0 | 0.00 | 0.55 | 0.00 | 94 | 1005.8 |
| 20260506034735 | 47 | 195 | 0.0 | 0.0 | 0.00 | 0.55 | 0.00 | 94 | 1005.9 |
| 20260506034234 | 47 | 195 | 0.0 | 0.0 | 0.00 | 0.55 | 0.00 | 94 | 1006.0 |
| 20260506033740 | 47 | 195 | 0.0 | 0.0 | 0.00 | 0.55 | 0.00 | 95 | 1006.0 |
| 20260506033246 | 47 | 195 | 0.0 | 0.0 | 0.00 | 0.55 | 0.00 | 95 | 1006.0 |
| 20260506032725 | 47 | 195 | 0.0 | 0.0 | 0.00 | 0.55 | 0.00 | 94 | 1006.2 |
| 20260506032245 | 46 | 195 | 0.0 | 0.0 | 0.00 | 0.55 | 0.00 | 94 | 1006.2 |
| 20260506031730 | 47 | 195 | 0.0 | 0.0 | 0.00 | 0.55 | 0.00 | 93 | 1006.2 |
| 20260506031229 | 47 | 195 | 0.0 | 0.0 | 0.00 | 0.55 | 0.00 | 94 | 1006.3 |
| 20260506030729 | 47 | 195 | 0.0 | 0.0 | 0.00 | 0.55 | 0.00 | 94 | 1006.3 |
| 20260506030246 | 47 | 195 | 0.0 | 0.0 | 0.00 | 0.55 | 0.00 | 94 | 1006.4 |
| 20260506025739 | 47 | 195 | 0.0 | 0.0 | 0.00 | 0.55 | 0.00 | 94 | 1006.3 |
| 20260506025238 | 47 | 195 | 0.0 | 0.0 | 0.00 | 0.55 | 0.00 | 93 | 1006.4 |
| 20260506024737 | 47 | 195 | 0.0 | 0.0 | 0.00 | 0.55 | 0.00 | 94 | 1006.6 |
| 20260506024223 | 47 | 195 | 0.0 | 0.0 | 0.00 | 0.55 | 0.00 | 94 | 1006.5 |
| 20260506023722 | 47 | 195 | 0.0 | 0.0 | 0.00 | 0.55 | 0.00 | 94 | 1006.8 |
| 20260506023222 | 47 | 195 | 0.0 | 0.0 | 0.00 | 0.55 | 0.00 | 93 | 1006.8 |
| 20260506022728 | 47 | 195 | 0.0 | 0.0 | 0.00 | 0.55 | 0.00 | 94 | 1007.0 |
| 20260506022227 | 47 | 198 | 0.0 | 0.0 | 0.00 | 0.55 | 0.00 | 93 | 1006.8 |
| 20260506021734 | 47 | 198 | 0.0 | 0.0 | 0.00 | 0.55 | 0.00 | 93 | 1006.7 |
| 20260506021233 | 47 | 198 | 0.0 | 0.0 | 0.00 | 0.55 | 0.00 | 93 | 1006.6 |
| 20260506020733 | 47 | 198 | 0.0 | 0.0 | 0.00 | 0.55 | 0.00 | 93 | 1006.5 |
| 20260506020250 | 47 | 198 | 0.0 | 0.0 | 0.00 | 0.55 | 0.00 | 93 | 1006.6 |
| 20260506015737 | 48 | 198 | 0.0 | 0.0 | 0.00 | 0.55 | 0.00 | 92 | 1006.6 |
| 20260506015243 | 48 | 193 | 0.0 | 0.0 | 0.00 | 0.55 | 0.00 | 92 | 1006.7 |
| 20260506014722 | 48 | 193 | 0.0 | 0.0 | 0.00 | 0.55 | 0.00 | 92 | 1006.9 |
| 20260506014239 | 48 | 193 | 0.0 | 0.0 | 0.00 | 0.55 | 0.00 | 92 | 1007.0 |
| 20260506013745 | 48 | 193 | 0.0 | 0.0 | 0.00 | 0.55 | 0.00 | 92 | 1006.8 |
| 20260506013222 | 49 | 193 | 0.0 | 0.0 | 0.00 | 0.55 | 0.00 | 92 | 1006.9 |
| 20260506012722 | 49 | 193 | 0.0 | 0.0 | 0.00 | 0.55 | 0.00 | 92 | 1007.1 |
| 20260506012228 | 49 | 193 | 0.0 | 0.0 | 0.00 | 0.55 | 0.00 | 92 | 1007.2 |
| 20260506011728 | 49 | 193 | 0.0 | 0.0 | 0.00 | 0.55 | 0.00 | 92 | 1007.3 |
| 20260506011235 | 49 | 193 | 0.0 | 0.0 | 0.00 | 0.55 | 0.00 | 92 | 1007.2 |
| 20260506010754 | 50 | 193 | 0.0 | 0.0 | 0.00 | 0.55 | 0.00 | 92 | 1007.3 |
| 20260506010235 | 50 | 193 | 0.0 | 0.0 | 0.00 | 0.55 | 0.00 | 92 | 1007.4 |
| 20260506005739 | 50 | 193 | 0.0 | 0.0 | 0.00 | 0.55 | 0.00 | 92 | 1007.6 |
| 20260506005245 | 49 | 193 | 0.0 | 0.0 | 0.00 | 0.55 | 0.00 | 92 | 1007.7 |
| 20260506004725 | 49 | 193 | 0.0 | 0.0 | 0.00 | 0.55 | 0.00 | 92 | 1007.8 |
| 20260506004224 | 49 | 193 | 0.0 | 0.0 | 0.00 | 0.55 | 0.00 | 92 | 1007.9 |
| 20260506003724 | 49 | 193 | 0.0 | 0.0 | 0.00 | 0.55 | 0.00 | 92 | 1008.0 |
| 20260506003228 | 49 | 193 | 0.0 | 0.0 | 0.00 | 0.55 | 0.00 | 92 | 1008.0 |
| 20260506002727 | 50 | 193 | 0.0 | 0.0 | 0.00 | 0.55 | 0.00 | 92 | 1008.1 |
| 20260506002226 | 50 | 193 | 0.0 | 0.0 | 0.00 | 0.55 | 0.00 | 92 | 1008.3 |
| 20260506001754 | 49 | 192 | 0.0 | 0.0 | 0.00 | 0.55 | 0.00 | 92 | 1008.2 |
| 20260506001300 | 49 | 191 | 0.0 | 0.0 | 0.00 | 0.55 | 0.00 | 92 | 1008.1 |
| 20260506000738 | 49 | 192 | 0.0 | 0.0 | 0.00 | 0.55 | 0.00 | 92 | 1008.1 |
| 20260506000256 | 49 | 193 | 0.0 | 0.0 | 0.00 | 0.55 | 0.00 | 92 | 1008.1 |
| 20260505235722 | 49 | 193 | 0.0 | 0.0 | 0.00 | 0.55 | 0.00 | 92 | 1008.1 |
| 20260505235245 | 49 | 191 | 0.0 | 0.0 | 0.00 | 0.55 | 0.00 | 92 | 1008.1 |
| 20260505234724 | 49 | 191 | 0.0 | 0.0 | 0.00 | 0.55 | 0.00 | 92 | 1008.1 |
| 20260505234221 | 49 | 191 | 0.0 | 0.0 | 0.00 | 0.55 | 0.00 | 92 | 1008.3 |
| 20260505233721 | 49 | 191 | 0.0 | 0.0 | 0.00 | 0.55 | 0.00 | 92 | 1008.3 |
| 20260505233225 | 49 | 191 | 0.0 | 0.0 | 0.00 | 0.55 | 0.00 | 92 | 1008.5 |
| 20260505232724 | 49 | 191 | 0.0 | 0.0 | 0.00 | 0.55 | 0.00 | 92 | 1008.5 |
| 20260505232224 | 49 | 193 | 0.0 | 0.0 | 0.00 | 0.55 | 0.00 | 91 | 1008.6 |
| 20260505231730 | 49 | 186 | 0.0 | 0.0 | 0.00 | 0.55 | 0.00 | 92 | 1008.6 |
| 20260505231229 | 49 | 186 | 0.0 | 0.0 | 0.00 | 0.55 | 0.00 | 93 | 1008.6 |
| 20260505230735 | 49 | 186 | 0.0 | 0.0 | 0.00 | 0.55 | 0.00 | 92 | 1008.7 |
| 20260505230243 | 48 | 186 | 0.0 | 0.0 | 0.00 | 0.55 | 0.00 | 92 | 1008.8 |
| 20260505225736 | 48 | 186 | 0.0 | 0.0 | 0.00 | 0.55 | 0.00 | 91 | 1008.7 |
| 20260505225235 | 49 | 186 | 0.0 | 0.0 | 0.00 | 0.55 | 0.00 | 92 | 1008.7 |
| 20260505224732 | 49 | 186 | 0.0 | 0.0 | 0.00 | 0.55 | 0.00 | 91 | 1008.7 |
| 20260505224238 | 49 | 186 | 0.0 | 0.0 | 0.00 | 0.55 | 0.00 | 92 | 1008.8 |
| 20260505223737 | 49 | 198 | 0.0 | 0.0 | 0.00 | 0.55 | 0.00 | 92 | 1008.8 |
| 20260505223244 | 49 | 198 | 0.0 | 0.0 | 0.00 | 0.55 | 0.00 | 92 | 1008.7 |
| 20260505222723 | 49 | 198 | 0.0 | 0.0 | 0.00 | 0.55 | 0.00 | 91 | 1008.7 |
| 20260505222307 | 49 | 198 | 0.0 | 0.0 | 0.00 | 0.55 | 0.00 | 91 | 1008.7 |
| 20260505221725 | 49 | 191 | 0.0 | 0.0 | 0.00 | 0.55 | 0.00 | 91 | 1008.6 |
| 20260505221223 | 49 | 191 | 0.0 | 0.0 | 0.00 | 0.55 | 0.00 | 91 | 1008.6 |
| 20260505220723 | 49 | 191 | 0.0 | 0.0 | 0.00 | 0.55 | 0.00 | 91 | 1008.7 |
| 20260505220240 | 49 | 191 | 0.0 | 0.0 | 0.00 | 0.55 | 0.11 | 91 | 1008.6 |
| 20260505215727 | 49 | 191 | 0.0 | 0.0 | 0.00 | 0.55 | 0.11 | 91 | 1008.7 |
| 20260505215233 | 49 | 191 | 0.0 | 0.0 | 0.00 | 0.55 | 0.11 | 91 | 1008.7 |
| 20260505214732 | 49 | 191 | 0.0 | 0.0 | 0.00 | 0.55 | 0.11 | 91 | 1008.7 |
| 20260505214238 | 49 | 191 | 0.0 | 0.0 | 0.00 | 0.55 | 0.11 | 91 | 1008.7 |
| 20260505213737 | 48 | 191 | 0.0 | 0.0 | 0.00 | 0.55 | 0.11 | 91 | 1008.7 |
| 20260505213245 | 48 | 192 | 0.0 | 0.0 | 0.00 | 0.55 | 0.11 | 91 | 1008.8 |
| 20260505212723 | 48 | 192 | 0.0 | 0.0 | 0.00 | 0.55 | 0.11 | 90 | 1008.8 |
| 20260505212239 | 48 | 192 | 0.0 | 0.0 | 0.00 | 0.55 | 0.11 | 91 | 1008.9 |
| 20260505211745 | 48 | 192 | 0.0 | 0.0 | 0.00 | 0.55 | 0.11 | 91 | 1009.1 |
| 20260505211224 | 48 | 192 | 0.0 | 0.0 | 0.00 | 0.55 | 0.11 | 91 | 1008.9 |
| 20260505210724 | 48 | 192 | 0.0 | 0.0 | 0.00 | 0.55 | 0.11 | 90 | 1008.9 |
| 20260505210241 | 48 | 192 | 0.0 | 0.0 | 0.00 | 0.55 | 0.11 | 90 | 1009.0 |
| 20260505205727 | 49 | 192 | 0.0 | 0.0 | 0.00 | 0.55 | 0.11 | 90 | 1009.0 |
| 20260505205234 | 49 | 193 | 0.0 | 0.0 | 0.00 | 0.55 | 0.11 | 90 | 1008.8 |
| 20260505204733 | 49 | 193 | 0.0 | 0.0 | 0.00 | 0.55 | 0.11 | 90 | 1008.9 |
| 20260505204232 | 49 | 193 | 0.0 | 0.0 | 0.00 | 0.55 | 0.11 | 90 | 1008.8 |
| 20260505203738 | 49 | 190 | 0.0 | 0.0 | 0.00 | 0.55 | 0.11 | 90 | 1008.9 |
| 20260505203238 | 49 | 190 | 0.0 | 0.0 | 0.00 | 0.55 | 0.11 | 89 | 1008.9 |
| 20260505202804 | 49 | 188 | 0.0 | 0.0 | 0.00 | 0.55 | 0.11 | 89 | 1008.8 |
| 20260505202247 | 49 | 188 | 0.0 | 0.0 | 0.00 | 0.55 | 0.11 | 90 | 1008.7 |
| 20260505201726 | 49 | 188 | 0.0 | 0.0 | 0.00 | 0.55 | 0.11 | 89 | 1008.6 |
| 20260505201225 | 49 | 188 | 0.0 | 0.0 | 0.00 | 0.55 | 0.11 | 88 | 1008.6 |
| 20260505200724 | 49 | 180 | 0.0 | 0.0 | 0.00 | 0.55 | 0.11 | 88 | 1008.6 |
| 20260505200241 | 49 | 179 | 0.0 | 0.0 | 0.00 | 0.55 | 0.11 | 88 | 1008.4 |
| 20260505195728 | 50 | 180 | 0.0 | 0.0 | 0.00 | 0.55 | 0.11 | 88 | 1008.4 |
| 20260505195234 | 50 | 180 | 0.0 | 0.0 | 0.00 | 0.55 | 0.11 | 87 | 1008.4 |
| 20260505194754 | 50 | 180 | 0.0 | 0.0 | 0.00 | 0.55 | 0.11 | 87 | 1008.3 |